Weather History for Medford, WI

Change the Weather History Date:

Thursday, May 1, 2014

  Actual Average Record
Temperature  
Mean Temperature 40 °F -  
Max Temperature 43 °F 59 °F 87 °F (1952)
Min Temperature 38 °F 36 °F 20 °F (1978)
Degree Days  
Heating Degree Days 24    
Moisture  
Dew Point 39 °F    
Average Humidity 94    
Maximum Humidity 99    
Minimum Humidity 88    
Precipitation  
Precipitation 0.02 in - - ()
Sea Level Pressure  
Sea Level Pressure 29.66 in    
Wind  
Wind Speed 6 mph (NW)    
Max Wind Speed 13 mph    
Max Gust Speed 18 mph    
Visibility 8 miles    
Events Rain    
Averages and records for this station are not official NWS values.
T = Trace of Precipitation, MM = Missing Value Source: NWS Daily Summary

Daily Weather History Graph

Daily Weather History Graph

Search for Another Location

Airport:

Trip Planner

Search our weather history database for the weather conditions in past years. The results will help you decide how hot, cold, wet, or windy it might be!

Date:

Astronomy

May. 01, 2014 Rise Set
Actual Time 5:50 AM CDT 8:07 PM CDT
Civil Twilight 5:17 AM CDT 8:39 PM CDT
Nautical Twilight 4:37 AM CDT 9:20 PM CDT
Astronomical Twilight 3:52 AM CDT 10:05 PM CDT
Moon 7:35 AM CDT (5/1) 10:43 PM CDT (5/1)
Length of Visible Light 15h 21m
Length of Day
14h 16m
Waxing Crescent, 7% of the Moon is Illuminated
May 1
Waxing Crescent
May 6
First Quarter
May 14
Full
May 21
Last Quarter
May 28
New

Hourly Weather History & Observations

Time (CDT) Temp. Windchill Dew Point Humidity Pressure Visibility Wind Dir Wind Speed Gust Speed Precip Events Conditions
12:15 AM 41.4 °F 38.4 °F 40.3 °F 96% 29.63 in 10.0 mi ESE 4.6 mph - N/A   Overcast
12:35 AM 41.2 °F 39.2 °F 40.1 °F 96% 29.63 in 7.0 mi ESE 3.5 mph - N/A   Overcast
1:15 AM 41.0 °F 38.0 °F 39.4 °F 94% 29.62 in 7.0 mi SE 4.6 mph - N/A   Overcast
1:35 AM 40.5 °F 36.5 °F 39.4 °F 96% 29.62 in 7.0 mi ESE 5.8 mph - N/A   Overcast
1:55 AM 40.1 °F 38.0 °F 38.7 °F 95% 29.61 in 10.0 mi East 3.5 mph - N/A   Overcast
2:15 AM 39.7 °F 35.6 °F 38.3 °F 95% 29.61 in 10.0 mi East 5.8 mph - N/A   Overcast
2:35 AM 39.4 °F 36.1 °F 38.1 °F 95% 29.61 in 10.0 mi SSE 4.6 mph - N/A   Overcast
2:55 AM 39.2 °F 33.6 °F 37.9 °F 95% 29.61 in 10.0 mi East 8.1 mph - N/A   Overcast
3:15 AM 38.5 °F 35.0 °F 37.4 °F 96% 29.60 in 10.0 mi ESE 4.6 mph - N/A   Overcast
3:35 AM 38.3 °F 35.9 °F 37.4 °F 97% 29.60 in 7.0 mi East 3.5 mph - N/A   Overcast
3:55 AM 38.3 °F 34.8 °F 37.4 °F 97% 29.60 in 7.0 mi ESE 4.6 mph - N/A   Overcast
4:15 AM 38.3 °F 35.9 °F 37.4 °F 97% 29.59 in 7.0 mi East 3.5 mph - N/A   Overcast
4:35 AM 38.3 °F 34.8 °F 37.6 °F 97% 29.59 in 7.0 mi East 4.6 mph - N/A   Overcast
5:15 AM 38.7 °F 36.3 °F 38.3 °F 99% 29.59 in 1.5 mi ESE 3.5 mph - N/A   Overcast
5:35 AM 38.8 °F 35.4 °F 38.5 °F 99% 29.59 in 3.0 mi ENE 4.6 mph - N/A   Overcast
5:55 AM 38.8 °F 36.5 °F 38.5 °F 99% 29.59 in 4.0 mi East 3.5 mph - N/A   Overcast
6:15 AM 39.2 °F 37.0 °F 38.7 °F 98% 29.59 in 5.0 mi East 3.5 mph - N/A   Overcast
6:35 AM 39.2 °F 37.0 °F 38.7 °F 98% 29.59 in 3.0 mi East 3.5 mph - N/A   Overcast
7:15 AM 39.4 °F 37.2 °F 38.8 °F 98% 29.60 in 5.0 mi East 3.5 mph - N/A   Light Drizzle
7:35 AM 39.2 °F - 38.5 °F 97% 29.60 in 7.0 mi Calm Calm - N/A   Light Drizzle
7:55 AM 39.4 °F - 38.5 °F 97% 29.61 in 7.0 mi Calm Calm - N/A   Light Drizzle
8:15 AM 39.6 °F - 38.5 °F 96% 29.61 in 5.0 mi Calm Calm - N/A   Light Drizzle
8:35 AM 39.7 °F - 38.5 °F 95% 29.61 in 4.0 mi Calm Calm - N/A   Drizzle
8:55 AM 40.1 °F - 38.8 °F 95% 29.61 in 4.0 mi Calm Calm - N/A   Drizzle
9:15 AM 40.1 °F - 39.0 °F 96% 29.61 in 3.0 mi Calm Calm - N/A   Drizzle
9:55 AM 41.0 °F - 39.7 °F 95% 29.62 in 5.0 mi Calm Calm - N/A Rain Light Rain
10:15 AM 41.0 °F - 39.4 °F 94% 29.62 in 5.0 mi Calm Calm - 0.01 in Rain Light Rain
10:35 AM 41.5 °F 38.6 °F 39.9 °F 94% 29.62 in 10.0 mi WNW 4.6 mph - 0.02 in Rain Light Rain
10:55 AM 42.4 °F 39.6 °F 39.7 °F 90% 29.63 in 10.0 mi NNW 4.6 mph - 0.02 in Rain Rain
11:15 AM 42.4 °F 38.1 °F 39.9 °F 91% 29.63 in 10.0 mi West 6.9 mph - N/A   Drizzle
11:35 AM 41.9 °F 38.2 °F 40.1 °F 93% 29.63 in 7.0 mi WNW 5.8 mph - N/A Rain Rain
11:55 AM 41.5 °F 37.1 °F 40.3 °F 95% 29.64 in 7.0 mi WNW 6.9 mph - N/A Rain Rain
12:15 PM 41.9 °F 38.2 °F 40.3 °F 94% 29.64 in 10.0 mi WNW 5.8 mph - N/A   Light Drizzle
12:35 PM 42.6 °F 39.0 °F 40.3 °F 91% 29.65 in 10.0 mi WNW 5.8 mph - N/A   Overcast
12:55 PM 41.7 °F 36.1 °F 39.7 °F 93% 29.65 in 10.0 mi WNW 9.2 mph - N/A   Overcast
1:15 PM 41.5 °F 36.4 °F 39.6 °F 93% 29.66 in 10.0 mi WNW 8.1 mph - N/A   Light Drizzle
1:35 PM 41.5 °F 35.4 °F 39.9 °F 94% 29.66 in 7.0 mi NW 10.4 mph - N/A   Light Drizzle
1:55 PM 41.7 °F 37.3 °F 39.6 °F 92% 29.66 in 10.0 mi WNW 6.9 mph - N/A   Light Drizzle
2:15 PM 42.4 °F 36.5 °F 40.3 °F 92% 29.67 in 10.0 mi NW 10.4 mph - N/A Rain Rain
2:35 PM 42.1 °F 35.7 °F 40.1 °F 93% 29.67 in 10.0 mi NW 11.5 mph - N/A   Drizzle
3:15 PM 42.8 °F 36.6 °F 40.5 °F 91% 29.68 in 10.0 mi NW 11.5 mph - N/A   Overcast
3:35 PM 42.4 °F 36.5 °F 40.1 °F 91% 29.69 in 10.0 mi NW 10.4 mph - N/A   Overcast
3:55 PM 42.3 °F 35.9 °F 39.9 °F 91% 29.69 in 7.0 mi NNW 11.5 mph - N/A Rain Light Rain
4:15 PM 42.3 °F 36.8 °F 41.0 °F 95% 29.69 in 3.0 mi NW 9.2 mph - N/A   Drizzle
5:15 PM 43.0 °F 37.2 °F 40.6 °F 91% 29.71 in 10.0 mi NW 10.4 mph - N/A   Overcast
5:35 PM 43.0 °F 37.2 °F 41.4 °F 94% 29.71 in 4.0 mi NW 10.4 mph - N/A Rain Light Rain
5:55 PM 43.0 °F 37.2 °F 41.4 °F 94% 29.71 in 5.0 mi West 10.4 mph - N/A Rain Light Rain
6:15 PM 43.3 °F 38.1 °F 40.6 °F 90% 29.71 in 10.0 mi NW 9.2 mph - N/A   Overcast
6:35 PM 43.2 °F 37.0 °F 40.1 °F 89% 29.72 in 10.0 mi NNW 11.5 mph 18.4 mph N/A   Overcast
6:55 PM 43.0 °F 36.8 °F 39.9 °F 89% 29.72 in 10.0 mi NW 11.5 mph - N/A   Overcast
7:15 PM 42.8 °F 36.2 °F 39.7 °F 89% 29.73 in 10.0 mi NW 12.7 mph - N/A   Overcast
7:35 PM 42.8 °F 37.5 °F 39.4 °F 88% 29.73 in 10.0 mi NW 9.2 mph - N/A   Overcast
7:55 PM 42.4 °F 37.5 °F 39.2 °F 88% 29.73 in 10.0 mi WNW 8.1 mph - N/A   Overcast
8:15 PM 41.9 °F 36.9 °F 39.9 °F 93% 29.74 in 10.0 mi WNW 8.1 mph - N/A   Overcast
8:55 PM 41.4 °F 36.2 °F 39.6 °F 93% 29.74 in 10.0 mi WNW 8.1 mph - N/A   Overcast
9:15 PM 40.8 °F 35.0 °F 39.7 °F 96% 29.75 in 2.5 mi West 9.2 mph - N/A   Overcast
9:35 PM 40.5 °F 34.6 °F 39.7 °F 97% 29.75 in 3.0 mi NW 9.2 mph - N/A   Overcast
9:55 PM 40.5 °F 34.1 °F 39.4 °F 96% 29.75 in 7.0 mi WNW 10.4 mph - N/A   Overcast
10:15 PM 40.3 °F 34.9 °F 39.2 °F 96% 29.76 in 5.0 mi West 8.1 mph - N/A   Overcast
10:35 PM 40.3 °F 33.9 °F 39.0 °F 95% 29.75 in 10.0 mi NW 10.4 mph 16.1 mph N/A   Overcast
10:55 PM 40.1 °F 34.1 °F 38.8 °F 95% 29.75 in 10.0 mi NW 9.2 mph - N/A   Overcast
11:15 PM 40.1 °F 33.6 °F 38.3 °F 93% 29.75 in 10.0 mi NW 10.4 mph - N/A   Overcast
11:35 PM 40.1 °F 35.3 °F 38.3 °F 93% 29.75 in 10.0 mi West 6.9 mph - N/A   Overcast
11:55 PM 39.7 °F 34.3 °F 38.5 °F 95% 29.75 in 3.0 mi NW 8.1 mph - N/A   Light Drizzle